Погода Кочубей

Погода Кочубей : погода сейчас, прогноз погоды и архив. Всё, что Вы хотите узнать о погоде Кочубей!

Поиск расширенной информации на нашем сайте:

Другие новости

Новости СМИ2

Главная страница сайта

Новости сайта

03.07.2017

Напоминаем, что на нашем специализированном сайте Метеоцентр.Азия вы можете получить высокодетализированные автоматические прогнозы погоды по пунктам России, СНГ и мира в авиационном формате (включающие направление и скорость ветра, видимость, явления погоды, количество и форму облачности, нижнюю и верхнюю границу облачности).


Погода Кочубей - сегодня

Время (UTC), дата Ветер
(°,м/с) 
Видим.   Явления Облачность Т
(°С)
Тd
(°С)
f(%) Тe
(°С)
Pmin
(гПа)
dP
(гПа)
Po
(мм)
O2
(г/м3)
Тmin Tmax R s Состояние
почвы
15 17.10.17 270 (З) 3{13}  4000 м    9/9 600 м 
[Sc]
+11.1 +5.7 69 +11  1018  0.6  766  296    +13.1       
18 17.10.17 230 (ЮЗ) 4000 м    10/10 600 м 
[Sc]
+11.4 +7.3 76 +11  1018.3  0.3  766  295           
21 17.10.17 тихо ()   4000 м    10/10 600 м 
[Sc]
+11 +8.6 85 +11  1018.1  -0.2  766  295           
00 18.10.17 280 (З) 6-10{11}  4000 м    10/10 600 м 
[Sc]
+12.5 +8.7 78 +11  1019.4  1.3  767  294           
03 18.10.17 280 (З) 4000 м    10/10 600 м 
[Sc]
+11.9 +9.4 85 +11  1021.7  2.3  768  295  +10.8        влажная 
06 18.10.17 280 (З) 20000 м    8/0 средняя 
[Ac trans]
+12.3 +8.5 78 +11  1023.9  2.2  770  295  +10.6         
09 18.10.17 280 (З) 5{10}  20000 м    9/9 600 м кучево-дожд. 
[Cb calv]
+13.7 +8.8 72 +13  1024.2  0.3  770  294           
12 18.10.17 280 (З) 20000 м    6/6 600 м кучево-дожд. 
[Cb calv]
+14.6 +7.5 62 +14  1024.1  0.1  770  293           
15 18.10.17 290 (З) 4000 м    10/10 600 м 
[Sc]
+11.4 +7.4 76 +13  1024.7  0.7  771  297    +15.1       
18 18.10.17 190 (Ю) 4000 м    4/4 600 м 
[Sc]
+8 +6.6 91 +8  1024.8  0.1  771  301           
21 18.10.17 160 (Ю) 4000 м    6/6 600 м 
[Sc]
+7.8 +6.8 93 +8  1024.3  -0.5  770  301           
00 19.10.17 180 (Ю) 4000 м    10/10 600 м 
[Sc]
+6.9 +5.8 93 +6  1023.7  -0.6  770  302           
03 19.10.17 190 (Ю) 0200 м  туман  н/о 
+5.7 +5.1 96 +5  1023.7  770  303  +5.6        сухая 
06 19.10.17 220 (ЮЗ) 4000 м  дымка{туман}  10/0 средняя 
[Ac As]
+9.7 +9.3 97 +11  1024.1  0.4  770  298  +5.1         
09 19.10.17 150 (ЮВ) 20000 м    10/0 средняя 
[Ac As]
+16.8 +8.4 58 +17  1022.6  -1.6  769  290           
12 19.10.17 260 (З) 20000 м    10/0 верхняя 
[Ci fib]
+18.3 +8.7 53 +20  1021.4  -1.2  768  289           
15 19.10.17 120 (ЮВ) 4000 м    10/0 средняя 
[Ac As]
+13.6 +10.5 82 +15  1020.9  -0.4  768  293    +18.7       
18 19.10.17 170 (Ю) 4000 м    6/0 средняя 
[Ac trans]
+12 +10 88 +13  1020.6  -0.4  767  294           
21 19.10.17 210 (ЮЗ) 4000 м    8/8 600 м 
[Sc]
+10.2 +9.4 95 +10  1019.6  -0.9  767  296           
00 20.10.17 200 (Ю) 4000 м    9/9 600 м 
[Sc]
+9.2 +8.4 95 +9  1019.1  -0.5  766  297           
03 20.10.17 220 (ЮЗ) 4000 м    9/9 600 м 
[Sc]
+10.2 +8.6 90 +10  1018.9  -0.2  766  296  +8.7        сухая 
06 20.10.17 250 (З) 20000 м    ясно 
+14.2 +10.7 79 +17  1019.3  0.4  767  292           
09 20.10.17 270 (З) 20000 м    10/3 600 м верхняя 
[Cu med, cong|Ci fib]
+19.4 +10.3 56 +21  1018.4  -1  766  286           
12 20.10.17 310 (СЗ) 20000 м    10/4 600 м верхняя 
[Cu med, cong|Ci fib]
+19.5 +10.1 55 +21  1017.6  -0.8  765  286           
15 20.10.17 тихо ()   4000 м    6/0 верхняя 
[Ci fib]
+14.2 +9.3 72 +14  1018.1  0.5  766  292    +20.3       
Время (UTC), дата Ветер
(°,м/с) 
Видим.   Явления Облачность Т
(°С)
Тd
(°С)
f(%) Тe
(°С)
Pmin
(гПа)
dP
(гПа)
Po
(мм)
O2
(г/м3)
Тmin Tmax R s Состояние
почвы

Для получения пояснительной информации подведите курсор к названию столбца.

ПОГОДА Кочубей - архив

Всё, что Вы хотите узнать о погоде Кочубей - удобно и подробно!

Выберите нужную дату (начиная с 1 января 2015* года) и нажмите кнопку "Найти".
Будут отображены архивные сводки погоды по пункту Кочубей, начиная с указанной даты.


Отображать данные в формате CSV (для использования в таблицах Excel)


Внимание! Наш архив погоды предназначен исключительно для личного некоммерческого использования в познавательных целях. Если Вам необходимы официальные справки о состоянии погоды (для производственных, юридических, коммерческих и т.п. целей), обращайтесь в органы Росгидромета.

*Примечание: данная дата относится к архиву по метеостанциям СССР (Россия, СНГ, Балтия).
Архив по метеостанциям Зарубежной Европы и Азии (кроме Китая) хранится 10 дней, по другим регионам земного шара (Китай, Африка, Америка, Австралия, Океания) - 1 день.

Кочубей - район местоположения метеостанции


Название, широта, долгота, высота метеостанции:
Кочубей 44.4°ш. 46.6°д. -21 м над ур. моря [Российская Федерация]

Дополнительная информация

В oтличие oт бoльшинства пoгoдных сайтoв мы публикуем пoдрoбную метеoинфoрмацию в детальнoм прoфессиoнальнoм фoрмате.

Характеристики температуры и влажнoсти вoздуха измеряются на высoте 2 м в тени вдали oт зданий и деревьев.
Скoрoсть ветра измеряется на высoте 10 м (на урoвне рoста челoвека скoрoсть ветра ниже в 1.5-2 раза). Если метеoстанция нахoдится в гoрoде или в лесу, тo скoрoсть ветра занижена на 2-4 м/с пo сравнению с oткрытым местoм. Скoрoсть ветра над акватoриями крупных рек и oзёр, а также на вершинах хoлмoв на 2-5 м/с выше, чем в oбычных услoвиях.
Атмoсфернoе давление в разных тoчках местнoсти мoжет значительнo oтличаться oт давления на метеoстанции, в зависимoсти oт услoвий рельефа (при пoдъёме на 10 м давление пoнижается примернo на 1 мм рт.ст.).